Wind_Speed
33 34 35 35 36 37 38 38 38 37 37 38 39 39 39 39 39 39 40 40 40 40 39 39 40 40 40 40 40 40 40 40 41 41 41 41 41 40 39 38 38 38 38 38
34 35 35 35 36 37 38 38 38 37 38 38 39 40 40 39 39 39 39 40 40 39 39 40 40 41 41 41 41 41 41 40 40 41 41 42 41 41 40 40 40 39 39 38
35 35 36 37 37 38 38 38 38 39 39 39 41 41 40 39 39 39 39 39 40 40 40 40 40 41 41 42 42 42 42 41 41 41 42 42 42 41 41 40 40 40 40 39
36 37 38 39 39 39 38 38 40 40 40 40 40 42 41 40 40 39 40 40 40 40 41 41 41 41 41 41 42 42 42 42 41 41 42 43 42 41 40 41 41 41 41 41
37 38 38 39 39 39 39 39 40 40 41 42 41 43 42 41 41 40 40 41 40 40 41 40 40 41 41 41 42 42 42 43 43 43 43 42 42 42 41 42 42 42 41 41
38 38 38 39 39 39 40 40 40 40 42 43 41 42 42 39 40 40 41 42 42 41 41 40 40 41 41 41 41 42 42 43 44 43 43 42 42 42 42 43 43 43 42 41
39 38 38 38 39 39 39 39 39 40 40 41 39 40 41 39 40 41 41 42 42 42 42 42 41 41 41 41 41 42 41 42 43 43 43 43 43 43 44 44 43 43 43 42
40 39 39 39 39 39 38 37 37 38 39 40 38 39 39 39 41 41 42 42 42 42 43 43 42 42 41 41 41 42 42 42 42 43 43 43 44 45 45 45 44 44 44 43
40 39 39 39 38 37 36 35 35 37 38 39 38 37 37 37 38 39 40 41 41 41 41 40 40 41 40 40 41 42 42 42 42 43 44 43 44 44 45 45 45 44 44 44
39 39 38 38 36 34 34 34 33 34 36 37 38 37 37 37 37 38 39 39 39 40 39 39 40 40 40 40 40 41 41 42 42 42 43 43 43 43 44 44 45 45 44 44
38 38 37 36 34 33 33 33 32 33 34 35 36 36 37 38 38 39 39 39 40 40 40 40 40 40 40 40 40 40 40 40 41 41 41 42 42 43 43 43 44 44 44 44
37 37 36 35 34 34 33 31 31 32 33 34 36 37 36 37 38 39 39 39 39 39 40 40 39 39 40 40 40 40 40 40 41 41 41 41 41 42 42 42 43 43 43 43
37 36 36 34 33 33 33 32 32 32 32 33 34 36 36 37 37 37 38 38 39 39 39 39 39 38 38 39 40 40 40 40 40 41 41 41 41 41 41 41 41 41 42 42
36 35 34 34 33 34 34 33 33 33 33 33 33 34 35 36 36 35 36 37 37 37 37 37 37 38 37 37 39 39 39 39 39 40 40 40 40 41 41 41 41 41 42 42
35 34 34 34 34 34 35 33 32 33 33 34 33 34 34 35 34 33 34 35 35 35 35 35 35 36 36 35 36 37 38 38 39 38 39 39 40 41 41 41 42 42 42 42
35 35 34 33 33 34 34 32 31 31 32 33 33 33 33 33 33 33 32 32 33 32 32 32 32 33 34 34 33 34 36 37 38 37 38 39 39 39 40 39 40 41 42 42
34 34 34 33 33 34 33 31 30 30 31 31 31 30 30 30 31 30 31 30 30 29 29 29 30 30 30 31 31 31 32 34 35 36 37 38 38 39 39 38 38 39 40 40
34 34 34 34 33 33 32 30 29 28 28 28 28 28 28 27 27 28 29 29 29 28 28 27 28 29 28 29 30 30 30 31 32 33 34 36 37 38 38 38 38 38 38 39
34 34 34 34 33 32 30 29 28 28 27 27 27 27 27 27 27 27 27 28 28 28 28 28 28 28 28 28 28 29 29 30 31 31 32 34 34 35 36 37 37 37 37 37
32 32 33 33 33 31 29 28 27 28 27 26 26 26 26 26 26 27 27 27 28 28 28 28 28 28 28 28 28 29 30 30 30 31 31 32 33 33 35 36 36 36 37 37
31 31 30 31 31 30 29 28 27 27 27 26 25 25 25 26 26 26 27 28 28 28 29 29 28 28 29 29 28 29 29 30 30 30 30 31 31 32 32 33 34 35 36 36
31 30 30 30 29 29 28 28 27 27 27 26 25 25 26 26 26 26 27 27 28 29 29 29 28 28 28 28 28 28 28 28 29 29 29 30 30 30 31 32 33 34 35 35
30 30 30 30 29 28 28 28 28 28 28 27 27 26 26 26 27 26 26 27 27 27 28 28 28 27 27 27 27 27 27 27 28 28 28 28 29 29 30 30 31 31 32 33
29 29 30 29 29 29 29 28 28 27 27 27 27 27 26 26 26 26 26 26 26 26 26 26 26 26 27 27 27 26 26 27 28 28 28 28 28 29 29 30 30 30 31 32
29 30 30 29 29 29 29 28 27 26 26 27 27 26 26 26 26 26 27 27 26 26 25 25 25 25 25 26 27 27 26 27 27 28 28 28 28 28 29 29 29 29 29 30
29 29 30 29 29 29 28 27 26 26 26 26 25 25 26 26 26 26 26 26 25 24 24 24 24 24 24 24 25 25 26 26 27 27 27 27 27 27 28 29 29 29 29 29
Wind_Direction
291 290 290 289 287 285 282 280 279 278 278 276 274 274 273 270 269 268 267 266 265 263 261 260 258 259 259 257 257 256 256 256 254 252 251 250 252 253 254 255 255 255 255 255
292 291 291 290 287 285 282 280 279 278 277 276 275 274 273 271 269 269 268 267 266 264 261 260 259 258 258 258 257 257 256 255 253 252 251 250 251 253 253 254 255 254 254 255
294 294 293 291 289 285 283 281 279 278 277 277 277 276 273 270 269 269 269 267 265 264 263 261 259 258 258 258 256 256 255 254 254 252 251 250 250 251 252 252 254 254 254 255
296 295 294 292 290 287 283 281 280 278 278 279 279 278 274 273 270 270 269 267 265 263 262 261 259 258 259 258 257 256 255 254 253 252 251 250 249 250 250 251 253 254 254 255
297 296 294 292 292 288 284 282 281 279 278 278 279 278 276 274 272 270 268 266 264 262 262 260 259 259 260 259 258 257 255 253 253 253 252 251 250 250 250 251 252 254 254 254
298 297 296 295 294 291 287 284 282 279 278 277 278 278 276 274 273 270 268 266 264 263 261 260 260 260 260 260 259 257 255 254 254 253 252 250 250 250 250 251 252 253 254 254
299 299 298 297 295 293 289 286 283 281 279 280 279 277 277 275 273 271 269 268 266 264 263 262 261 261 260 259 258 257 257 255 254 253 251 250 250 250 250 251 252 253 254 254
301 302 301 299 298 296 290 285 283 281 282 281 277 275 276 274 272 271 269 268 266 264 265 264 262 262 261 259 258 258 257 256 254 252 251 250 251 251 251 251 253 254 254 255
302 301 301 299 299 296 291 286 284 281 281 279 277 277 275 274 273 271 270 269 267 266 265 264 262 262 262 260 258 257 256 255 254 252 251 250 250 251 251 252 252 253 253 254
302 301 301 300 298 295 293 291 288 282 281 280 278 275 274 273 273 272 269 268 267 267 266 265 264 263 262 260 258 257 256 254 252 251 250 250 250 250 250 251 253 253 254 254
304 303 302 300 299 297 295 292 288 283 280 280 280 277 276 274 273 272 270 268 267 266 266 265 264 262 261 259 257 255 254 253 251 250 249 249 249 249 250 251 252 253 253 253
305 304 301 301 300 298 297 293 289 286 282 278 277 276 276 275 272 271 271 269 269 268 267 267 265 263 261 259 256 254 253 252 250 250 249 248 249 249 249 251 252 252 252 253
306 304 303 302 301 299 296 293 289 287 285 281 279 276 274 273 273 272 272 271 270 270 269 267 264 263 261 259 256 254 253 251 250 249 249 249 249 249 250 251 251 251 252 252
305 304 303 302 300 298 296 293 290 285 284 282 281 278 274 272 271 272 272 270 271 271 270 267 263 262 262 259 257 255 253 251 250 249 250 250 250 250 251 251 251 252 252 252
304 303 302 302 299 296 295 293 290 286 283 283 282 279 276 274 273 272 272 270 270 270 270 268 265 261 260 259 258 255 253 251 250 249 249 250 250 250 250 251 251 252 252 252
303 302 302 301 300 298 295 294 292 289 285 283 283 281 279 276 275 272 271 271 270 270 270 268 267 264 260 259 258 256 254 252 250 249 249 249 250 251 251 251 251 251 251 251
303 302 302 302 300 298 296 296 294 291 288 287 285 283 281 278 275 272 271 271 270 269 268 269 267 264 261 259 258 257 255 252 250 248 248 248 249 250 251 252 252 252 251 251
303 303 302 302 301 299 300 297 294 293 292 290 288 284 283 281 278 275 273 271 270 269 268 267 266 265 263 259 256 255 254 252 250 248 248 248 247 248 249 251 251 251 252 251
303 303 303 303 302 301 300 298 295 293 292 291 288 285 282 280 279 278 276 273 271 269 267 266 266 264 262 259 257 254 254 251 249 248 248 247 246 247 249 250 250 250 251 252
304 303 302 302 300 299 300 301 297 295 293 292 289 286 283 283 280 278 276 276 273 271 268 266 266 263 261 259 257 255 255 253 249 248 248 247 246 247 248 249 249 250 252 254
303 302 302 301 300 299 300 300 298 295 295 293 289 287 285 284 283 280 277 277 277 273 271 268 266 264 261 260 259 257 255 253 249 249 249 248 247 246 247 248 250 251 252 253
302 302 302 302 302 302 301 299 296 294 293 292 290 288 287 286 285 283 280 279 278 276 273 270 267 264 261 260 258 257 255 252 251 250 250 249 248 247 248 249 250 251 252 252
302 302 302 301 301 301 301 299 296 293 290 289 289 289 289 287 286 285 282 280 279 278 275 271 267 262 260 259 258 257 254 252 251 251 251 250 249 249 250 251 251 251 251 252
303 301 300 300 300 300 299 298 297 295 292 290 289 290 289 288 285 285 286 284 281 279 276 272 267 263 260 258 258 256 254 253 253 252 251 251 250 250 251 252 252 252 252 252
304 300 299 299 300 298 298 297 297 297 296 294 293 290 290 289 287 286 287 285 282 278 275 272 269 264 261 259 258 257 255 254 253 252 252 251 252 252 252 252 252 253 253 253
303 301 301 300 300 300 299 298 297 299 299 297 294 292 290 290 289 288 287 285 282 279 274 271 268 266 263 261 258 258 257 255 253 253 252 252 253 253 253 253 253 253 254 255
Height
5717 5716 5713 5711 5709 5707 5705 5704 5703 5703 5702 5701 5701 5701 5702 5702 5703 5703 5704 5705 5706 5707 5708 5709 5710 5711 5713 5714 5716 5717 5719 5720 5722 5724 5727 5730 5733 5736 5739 5741 5743 5745 5747 5749
5709 5707 5705 5702 5699 5697 5695 5694 5693 5694 5693 5691 5691 5691 5691 5691 5692 5693 5694 5695 5696 5697 5698 5699 5700 5701 5703 5704 5706 5707 5708 5709 5711 5714 5717 5720 5723 5726 5729 5731 5733 5736 5738 5740
5700 5699 5695 5692 5690 5687 5685 5684 5683 5683 5682 5681 5680 5680 5681 5681 5681 5683 5684 5685 5685 5686 5688 5689 5690 5691 5692 5693 5695 5696 5697 5699 5700 5703 5706 5709 5713 5716 5719 5721 5724 5726 5728 5730
5691 5688 5685 5682 5679 5676 5675 5674 5672 5671 5671 5670 5670 5667 5670 5670 5670 5671 5672 5674 5675 5676 5677 5678 5679 5681 5682 5683 5684 5685 5686 5688 5690 5693 5696 5699 5703 5706 5709 5711 5713 5716 5718 5720
5682 5678 5675 5672 5669 5666 5664 5663 5661 5660 5659 5659 5659 5656 5659 5659 5659 5660 5660 5662 5663 5665 5666 5667 5668 5670 5671 5672 5673 5674 5675 5677 5680 5682 5685 5688 5692 5695 5698 5700 5703 5706 5708 5710
5672 5668 5665 5661 5658 5655 5653 5652 5651 5649 5647 5647 5649 5646 5646 5648 5648 5648 5649 5649 5651 5653 5655 5656 5657 5658 5660 5661 5662 5664 5665 5667 5669 5671 5674 5678 5681 5685 5687 5690 5693 5695 5698 5700
5663 5659 5655 5652 5649 5646 5643 5641 5639 5637 5636 5636 5638 5635 5636 5637 5636 5636 5637 5638 5640 5642 5643 5644 5646 5647 5649 5650 5652 5653 5655 5656 5658 5661 5663 5667 5670 5674 5676 5679 5682 5684 5687 5689
5652 5649 5645 5641 5638 5636 5633 5631 5629 5627 5626 5626 5627 5625 5626 5626 5626 5626 5626 5627 5628 5630 5631 5632 5634 5636 5637 5639 5641 5642 5644 5646 5648 5650 5653 5656 5659 5662 5665 5668 5671 5673 5676 5679
5642 5639 5635 5632 5629 5626 5623 5621 5620 5617 5615 5615 5616 5615 5615 5614 5614 5614 5615 5615 5617 5618 5619 5621 5622 5624 5625 5627 5629 5631 5633 5635 5637 5639 5642 5645 5648 5650 5654 5656 5659 5662 5665 5667
5632 5630 5627 5623 5620 5617 5615 5612 5610 5607 5605 5604 5606 5606 5605 5604 5604 5604 5604 5604 5605 5607 5608 5609 5610 5612 5614 5615 5617 5619 5621 5623 5626 5628 5631 5634 5636 5639 5642 5645 5648 5650 5653 5656
5624 5621 5618 5614 5611 5609 5607 5604 5601 5599 5597 5595 5595 5597 5594 5594 5593 5593 5593 5594 5595 5596 5597 5598 5599 5600 5602 5604 5605 5607 5609 5612 5614 5617 5620 5622 5625 5628 5631 5634 5636 5639 5642 5645
5615 5612 5609 5606 5603 5599 5597 5595 5592 5591 5589 5586 5585 5588 5585 5584 5583 5583 5583 5583 5584 5584 5585 5586 5588 5589 5590 5592 5594 5596 5598 5600 5603 5605 5608 5611 5614 5617 5620 5623 5625 5628 5630 5633
5607 5603 5600 5598 5596 5592 5589 5587 5584 5581 5579 5578 5576 5578 5575 5574 5573 5573 5573 5573 5573 5573 5574 5575 5576 5577 5579 5581 5583 5585 5587 5589 5592 5594 5597 5600 5603 5606 5609 5612 5614 5617 5619 5622
5599 5595 5593 5591 5587 5583 5581 5579 5575 5573 5570 5569 5568 5566 5565 5564 5564 5564 5563 5562 5562 5563 5563 5563 5564 5566 5568 5569 5571 5574 5576 5579 5581 5584 5587 5590 5593 5595 5598 5601 5604 5606 5609 5611
5591 5588 5585 5582 5578 5575 5572 5570 5567 5564 5562 5560 5559 5557 5556 5555 5554 5554 5553 5552 5552 5553 5553 5553 5554 5555 5557 5558 5560 5562 5565 5567 5570 5573 5576 5578 5581 5584 5587 5590 5593 5595 5598 5601
5583 5580 5577 5574 5570 5567 5564 5561 5559 5556 5553 5551 5549 5548 5546 5545 5544 5544 5543 5543 5543 5543 5543 5543 5544 5545 5546 5548 5550 5552 5554 5556 5559 5562 5565 5567 5570 5573 5576 5579 5582 5584 5587 5590
5575 5571 5568 5566 5562 5558 5556 5554 5550 5547 5545 5543 5541 5540 5538 5537 5536 5535 5535 5534 5534 5534 5534 5535 5535 5536 5537 5538 5540 5542 5544 5546 5548 5551 5554 5557 5559 5562 5565 5568 5571 5573 5576 5579
5567 5563 5559 5556 5554 5551 5550 5545 5542 5540 5537 5535 5532 5531 5530 5528 5527 5527 5526 5526 5526 5526 5526 5526 5527 5527 5528 5529 5531 5533 5534 5536 5538 5541 5543 5546 5549 5552 5555 5557 5560 5563 5565 5568
5560 5556 5552 5548 5545 5542 5541 5538 5535 5532 5530 5528 5526 5524 5522 5521 5520 5519 5518 5518 5517 5517 5518 5518 5518 5519 5520 5521 5522 5524 5526 5527 5529 5531 5533 5536 5538 5541 5544 5547 5550 5552 5555 5557
5553 5549 5545 5541 5537 5535 5535 5531 5527 5525 5523 5521 5519 5517 5515 5514 5513 5513 5511 5510 5510 5509 5509 5510 5510 5510 5511 5512 5513 5515 5517 5518 5520 5522 5524 5526 5529 5531 5534 5537 5539 5541 5544 5547
5546 5542 5539 5535 5531 5528 5527 5524 5521 5520 5518 5514 5511 5510 5508 5506 5505 5505 5503 5502 5501 5501 5501 5501 5501 5502 5502 5504 5505 5506 5507 5509 5511 5513 5515 5517 5519 5521 5524 5527 5529 5531 5534 5536
5538 5535 5532 5528 5525 5525 5520 5517 5515 5513 5509 5506 5504 5503 5501 5499 5498 5496 5495 5494 5493 5493 5493 5493 5493 5493 5494 5495 5496 5497 5499 5501 5503 5505 5507 5508 5510 5512 5515 5517 5519 5521 5524 5526
5532 5529 5525 5523 5521 5517 5513 5510 5507 5504 5502 5500 5498 5496 5494 5492 5491 5489 5488 5487 5486 5485 5485 5484 5484 5485 5486 5487 5488 5489 5491 5492 5494 5496 5498 5500 5502 5504 5506 5508 5510 5512 5514 5516
5525 5522 5518 5515 5513 5510 5506 5503 5500 5497 5495 5493 5491 5489 5487 5486 5484 5482 5481 5479 5478 5477 5477 5476 5476 5477 5478 5479 5480 5481 5483 5484 5486 5488 5490 5492 5493 5495 5497 5499 5501 5502 5504 5506
5518 5515 5511 5509 5506 5503 5500 5496 5493 5491 5488 5486 5484 5482 5480 5479 5477 5475 5473 5472 5471 5470 5469 5469 5469 5469 5470 5471 5472 5473 5475 5476 5478 5480 5481 5483 5485 5487 5489 5490 5492 5493 5495 5496
5511 5508 5505 5502 5499 5496 5493 5489 5487 5484 5482 5479 5477 5475 5473 5471 5469 5468 5466 5464 5463 5462 5461 5461 5461 5462 5462 5463 5464 5466 5467 5469 5470 5472 5473 5475 5476 5478 5480 5482 5483 5484 5486 5488